Torna al catalogo

THORAD AGENA D DEB

AttivoSSO
NORAD 5388·DEBRIS·🇺🇸 United States

Lanciato Apr 8, 1970 da Vandenberg Space Force Base

Loading…

Prossimi Passaggi (prossime 24 ore)

TLE

AggiornatoSource: Space-Track

Epoca: Sep 14, 2026, 07:11 UTC

1 05388U 70025KT  26257.29978275  .00000508  00000-0  98668-3 0  9992
2 05388  99.9313 194.8769 0136232 310.8533 204.0193 13.38360060737763

Traccia THORAD AGENA D DEB in tempo reale con AllMySat

Download on the App Store